www.pogodaiklimat.ru

Погода и климат >> Архив погоды >> Россия >> Камчатский край >> Тигиль


ПОГОДА в Тигиле

  • Прогноз погоды в Тигиле
  • Монитор погоды в Тигиле

АРХИВ ПОГОДЫ в Тигиле

Время (UTC), дата Ветер
(напр.,м/с)
 
Видим.   Явления Облачность Т
(С)
Тd
(С)
f
(%)
Тe
(С)
Тes
(С)
Комфортность P
(гПа)
Po
(гПа)
Тmin
(С)
Tmax
(С)
R
(мм)
R24
(мм)
S
(см)
18 12.06 Ю 1 4000 м дымка 10/10 200 м
[St]
+4.5 +3.8 95 +3 +3 1020.7 1018.7
21 12.06 Ю 1 20 км {морось} 10/10 300 м
[St]
+6.1 +4.5 89 +5 +5 1019.9 1018.3 +3.8 0.1
00 13.06 СВ 1 20 км {морось} 10/6 300 м
[St As op]
+9.1 +4.7 74 +9 +10 1019.2 1017.6
03 13.06 СЗ 4 20 км 10/0
[Cs]
+13.7 +6.1 60 +12 +12 1019.2 1017.3
06 13.06 СЗ 5 20 км 10/0
[Cs]
+11.9 +4.6 61 +10 +10 1017.9 1016.0
09 13.06 СЗ 4 20 км 10/0
[Cs]
+6.4 +3.0 79 +3 +3 1018.0 1016.0 +14.3
12 13.06 СВ 1 2000 м дымка 10/10 200 м
[St]
+3.0 +2.3 95 +1 +1 1016.7 1015.1
15 13.06 С 2 20 км дымка 10 баллов +1.6 +1.0 96 -2 -2 1018.0 1016.0
18 13.06 З 1 2000 м дымка 10/10 200 м
[St]
+1.2 +0.6 96 -1 -1 1018.0 1016.0
21 13.06 С 1 4000 м дымка 10/10 200 м
[St]
+2.8 +2.1 95 +1 +1 1016.9 1015.3 +1.2
00 14.06 З 2 20 км 3/0
[Ci fib]
+12.8 +5.2 60 +12 +25 опасность
простуды
1015.3 1013.7
03 14.06 СЗ 4 20 км 4/1 600 м
[Cu hum Ci fib]
+17.2 +4.8 44 +17 +22 1015.2 1013.3
06 14.06 СЗ 5 20 км 3/1 600 м
[Sc diur, vesp Ci fib]
+15.2 +3.7 46 +14 +17 1015.2 1013.3
09 14.06 СЗ 3 20 км 3/0
[Ci fib]
+10.2 +3.5 63 +8 +9 1016.7 1014.7 +17.9
12 14.06 СВ 1 20 км местами туман поземный ясно +3.7 +2.1 89 +2 +2 1018.0 1016.0
15 14.06 З 1 4000 м дымка 10/10 300 м
[St]
+3.3 +2.4 94 +2 +2 1019.3 1017.3
18 14.06 штиль 0 4000 м дымка 10/10 300 м
[St]
+0.5 -0.2 95 -1 -1 1022.0 1020.0
21 14.06 ЮВ 1 20 км ясно +8.4 +5.2 80 +8 +15 1020.7 1019.1 +0.4
00 15.06 ЮЗ 2 20 км 3/0
[Ci fib]
+16.2 -0.1 33 +16 +30 опасность
простуды
1019.8 1018.2
03 15.06 СЗ 3 20 км 3/0
[Ci fib]
+19.3 +3.9 36 +20 +29 1020.6 1018.7
06 15.06 С 3 20 км 3/1 600 м
[Sc Ac lent]
+15.8 +3.2 43 +15 +19 1020.6 1018.7
09 15.06 СЗ 2 20 км 1/1 600 м
[Sc]
+11.9 +3.9 58 +11 +12 1022.0 1020.0 +19.8
12 15.06 С 1 20 км ясно +5.5 +3.3 86 +4 +4 1023.3 1021.3
15 15.06 штиль 0 2000 м дымка 10/10 200 м
[St]
+1.5 +0.6 94 0 0 1022.0 1020.0
18 15.06 штиль 0 2000 м дымка 10/10 200 м
[St]
+0.6 0.0 96 -1 -1 1023.3 1021.3
21 15.06 ЮВ 2 20 км 4/3 300 м
[St Ci fib]
+13.0 +5.4 60 +12 +17 1020.4 1018.8 +0.1
00 16.06 Ю 2 20 км 10/0
[As trans]
+20.9 +4.8 35 +22 +28 комфорт 1018.7 1017.2
03 16.06 СЗ 4 20 км 10/4 600 м
[Sc As trans]
+15.7 +6.4 54 +15 +15 1020.6 1018.7
06 16.06 СЗ 5 20 км 10/0
[As trans]
+12.2 +5.8 65 +10 +10 1022.0 1020.0
09 16.06 З 1 10 км слаб. дождь 10/10 300 м
[Frnb Ns]
+9.8 +7.7 87 +9 +9 1023.3 1021.3 +22.3 0.3
12 16.06 штиль 0 10 км слаб. дождь 10/10 300 м
[Frnb Ns]
+9.3 +8.1 92 +8 +8 1021.6 1020.0
15 16.06 штиль 0 10 км слаб. дождь 10/10 300 м
[Frnb Ns]
+9.4 +8.3 93 +9 +9 1022.0 1020.0
18 16.06 штиль 0 10 км слаб. дождь 10/10 300 м
[Frnb Ns]
+9.6 +8.5 93 +9 +9 1022.0 1020.0
21 16.06 С 1 20 км {дождь} 10/8 600 м
[Sc As op]
+12.4 +10.0 85 +12 +13 1018.4 1016.8 +9.3 3
00 17.06 В 2 20 км {дождь} 9/4 600 м
[Sc Ac trans]
+16.8 +9.0 60 +17 +21 1015.9 1014.3
03 17.06 ЮВ 1 20 км 10/0
[As op]
+17.1 +9.0 59 +18 +18 1015.2 1013.3
06 17.06 СВ 1 20 км 10/0
[As op]
+20.0 +10.4 54 +23 +23 комфорт 1012.6 1010.7
09 17.06 Ю 1 20 км 10/0
[As op]
+17.4 +6.6 49 +18 +18 1011.2 1009.3 +21.1
12 17.06 В 2 20 км 10/0
[As op]
+12.9 +6.3 64 +12 +12 1009.9 1008.0
15 17.06 ЮВ 4 20 км 10/0
[As op]
+12.9 +5.3 60 +11 +11 1008.6 1006.7
18 17.06 ЮВ 1 20 км {дождь} 10/0
[As trans]
+11.1 +6.4 73 +11 +11 1007.2 1005.3
21 17.06 ЮВ 6-12
{12}
20 км 8/4 600 м
[Sc Ac lent]
+15.5 +4.4 48 +14 +15 1004.3 1002.8 +9.9 0.3
00 18.06 ЮВ 8-12
{14}
20 км 8/4 600 м
[Sc Ac lent]
+16.8 +4.4 44 +16 +16 1004.2 1002.7
03 18.06 ЮВ 8-13
{16}
20 км 4/1 600 м
[Sc Ac lent]
+19.2 +4.8 39 +19 +21 1003.1 1001.6
06 18.06 ЮВ 6-12
{15}
20 км 8/3 600 м
[Sc Ac lent]
+17.8 +5.0 43 +17 +18 1004.6 1002.7
09 18.06 ЮВ 7-12
{15}
20 км 9/0
[Ac lent]
+15.5 +5.7 52 +14 +14 1004.6 1002.7 +20.1
12 18.06 ЮВ 7-15
{15}
20 км 9/0
[Ac lent]
+13.9 +5.5 57 +12 +12 1003.4 1001.8
15 18.06 В 1
{15}
20 км 8/0
[Ac As]
+11.2 +4.9 65 +11 +11 1004.6 1002.7
18 18.06 Ю 1 20 км 10/0
[Ac und]
+11.6 +5.2 65 +12 +12 1004.6 1002.7
21 18.06 ЮВ 4
{10}
20 км 10/4 600 м
[Sc As trans]
+13.9 +5.0 55 +13 +14 1003.8 1002.2 +9.9
00 19.06 ЮВ 5
{13}
20 км слаб. ливневой дождь 10/10 300 м
[Cb cap]
+12.7 +6.7 67 +11 +11 1005.0 1003.4
03 19.06 ЮВ 1 20 км 10 баллов +11.8 +8.3 79 +12 +12 1007.2 1005.3
06 19.06 Ю 1 20 км 10 баллов +13.2 +6.8 65 +14 +14 1007.2 1005.3
09 19.06 С 2 20 км 10/10 600 м
[Sc]
+10.3 +7.2 81 +9 +9 1008.6 1006.7 +16.0 2
12 19.06 С 1 20 км 10 баллов +8.7 +7.2 90 +8 +8 1008.6 1006.7
15 19.06 С 1 20 км в посл. час ливневой дождь 10 баллов +7.6 +6.2 91 +7 +7 1010.0 1008.0

 

Местоположение метеостанции Тигиль (Камчатский край, Россия): широта 57.75 долгота 158.60 высота над уровнем моря 16 м.

В архиве по умолчанию представлена погода в Тигиле за последнюю неделю. Архивные данные за месяц целиком и за предыдущие месяцы, начиная с января 2011 года, Вы можете получить, выбрав интересующий диапазон дат из раскрывающегося списка и нажав кнопку "Ввод!".


*Определитесь, кто Вы:
робот инопланетянин человек

Внимание! Время в таблицах - всемирное. Для получения местного времени необходимо прибавить поправку, которая равна 12 ч.

Смотрите также архив погоды в соседних городах и на ближайших метеорологических станциях:

Погода в Усть-Воямполке (Камчатский край, Россия) (88 км)
Погода в Усть-Хайрюзово (Камчатский край, Россия) (136 км)
Погода в Палане (Камчатский край, Россия) (166 км)
Погода в Эссо (Камчатский край, Россия) (203 км)
Погода в Козыревске (Камчатский край, Россия) (203 км)
Погода в Ключах (Камчатский край, Россия) (207 км)
Погода на Мысе Озерном (Камчатский край, Россия) (274 км)
Погода в Долиновке (Камчатский край, Россия) (294 км)
Погода в Усть-Камчатске (Камчатский край, Россия) (301 км)
Погода в Оссоре (Камчатский край, Россия) (304 км)

Пояснения к столбцам:

Ветер - указаны скорость ветра в м/с - средняя за 10 мин, порывы в срок и между сроками (в фигурных скобках) и направление, откуда дует ветер: С - северный, СВ - северо-восточный, В - восточный, ЮВ - юго-восточный, Ю - южный, ЮЗ - юго-западный, З - западный, СЗ - северо-западный.
Видимость - горизонтальная дальность видимости в метрах или километрах. При видимости от 1 до 10 км при отсутствии осадков обычно наблюдается дымка, при ухудшении видимости до 1 км и менее - туман. В сухую погоду видимость может ухудшаться дымом, пылью или мглою.
Явления - указаны атмосферные явления, наблюдавшиеся в срок или в последний час перед сроком; фигурными скобками обозначены явления, наблюдавшиеся между сроками (за 1-3 часа до срока); квадратными скобками обозначены град или гололедные отложения с указанием их диаметра в мм.
Облачность - указаны через наклонную черту общая и нижняя облачность в баллах и высота нижней границы облаков в метрах; квадратными скобками обозначены формы облаков: Ci - перистые, Cs - перисто-слоистые, Cc - перисто-кучевые, Ac - высококучевые, As - высокослоистые, Sc - слоисто-кучевые, Ns - слоисто-дождевые, Cu - кучевые, Cb - кучево-дождевые. Подробнее классификацию облаков см. в Атласе облаков (PDF).
T - Температура воздуха - температура, измеренная на высоте 2 м над землей.
Td - Температура точки росы - температура, при понижении до которой содержащийся в воздухе водяной пар достигнет насыщения.
f - Относительная влажность воздуха - влажноcть воздуха, измеренная на высоте 2 м над землей.
Te - Эффективная температура - температура, которую ощущает одетый по сезону человек в тени. Характеристика душности погоды. При расчете учитывается влияние влажности воздуха и скорости ветра на теплоощущения человека.
Tes - Эффективная температура на солнце - температура, которую ощущает человек, с поправкой на солнечный нагрев. Характеристика знойности погоды. Зависит от высоты солнца над горизонтом, облачности и скорости ветра. Ночью, в пасмурную погоду, а также при ветре 12 м/с и более поправка равна нулю.
P - Атмосферное давление - приведенное к уровню моря атмосферное давление.
Po - Атмосферное давление - измеренное на уровне метеостанции атмосферное давление.
Tmin - Минимальная температура - минимум температуры воздуха на высоте 2 м над землей.
Tmax - Максимальная температура - максимум температуры воздуха на высоте 2 м над землей.
R - Количество осадков - Количество выпавших осадков за период времени, мм. При наведении курсора мыши на число - период времени, за который выпало указанное количество осадков.
R24 - Количество осадков - Количество выпавших осадков за 24 часа, мм.
S - Снежный покров - Высота снежного покрова, см. При наведении курсора мыши на число - состояние снежного покрова и степень покрытия местности в баллах.